{"data":{"norad_id":58040,"intl_designator":"2023-156N","name":"STARLINK-30555","alt_names":[],"object_type":"PAYLOAD","status":"ACTIVE","operator":null,"country":"US","launch_date":"2023-10-09","launch_site_code":"AFWTR","launch_vehicle":null,"mission":null,"orbit_class":"UNKNOWN","rcs_meters":null,"size_class":null,"mass_kg":null,"dimensions":null,"purposes":["comms"],"wikipedia_slug":null,"has_3d_model":false,"image_url":null,"decayed_at":null,"tle_current":{"epoch":"2026-09-20T12:02:32.479584Z","epoch_age_seconds":137521,"freshness":"FRESH","line1":"1 58040U 23156N   26263.50176481  .00003500  00000+0  11471-3 0  9999","line2":"2 58040  53.1621 339.4597 0001004  98.5961 261.5155 15.34389138164911","mean_motion":15.34389138,"eccentricity":0.0001004,"inclination_deg":53.1621,"raan_deg":339.4597,"arg_perigee_deg":98.5961,"mean_anomaly_deg":261.5155,"bstar":0.00011471,"rev_number":16491,"period_min":93.848422433241,"perigee_km":462.04870094915,"apogee_km":463.42234815208,"semimajor_km":6840.8725245506,"source":"CELESTRAK","updated_at":"2026-09-21T09:00:33.760166Z"}}}